Tracking 19832 objects as of 25-Aug-2019
HD Live streaming from Space Station
objects crossing your sky now

FENGYUN 1C DEB

Track FENGYUN 1C DEB now!
10-day predictions


NORAD ID: 30345
Int'l Code: 1999-025ABG
Perigee: 813.6 km
Apogee: 847.6 km
Inclination: 98.9 °
Period: 101.4 minutes
Semi major axis: 7201 km
RCS: 0.035 m2 (small)
Launch date: May 10, 1999
Source: People's Republic of China (PRC)
Launch site: Taiyaun Space Center, China (TSC)

Note: This is SATELLITE DEBRIS
aabbcc
Your satellite tracking list
Your tracking list is empty




NASA's NSSDC Master Catalog

Two Line Element Set (TLE):
1 30345U 99025ABG 19236.89911237  .00000578  00000-0  28932-3 0  9998
2 30345  98.9260 210.0480 0023567  55.8056 304.5349 14.20553993649668
Source of the keplerian elements: AFSPC